Theta_e
309 310 310 309 309 310 311 312 315 316 319 320 320 320 321 318 316 313 312 310 308 309 311 311 310 309 309 310 307 311 316 315 312 313 310 311 313 314 315 313 311 310 310 317 320 322 323
308 308 309 309 309 308 306 307 308 310 315 318 318 319 319 320 318 315 313 311 308 309 311 311 310 308 311 308 309 317 314 314 313 312 311 311 313 313 315 314 314 318 322 323 323 324 323
307 308 307 308 308 309 308 307 305 306 309 316 316 317 319 319 320 317 314 312 309 308 311 311 310 309 312 306 313 317 314 314 314 313 310 311 313 314 314 315 315 316 325 324 324 322 322
306 307 307 307 307 308 308 308 307 305 307 313 314 315 317 318 319 319 315 313 309 308 310 311 310 311 312 309 310 311 313 317 317 314 313 311 314 313 314 314 314 317 320 325 325 323 319
305 306 306 306 306 307 308 308 308 307 305 307 312 314 316 317 318 320 316 313 309 309 311 311 310 314 312 311 312 313 315 317 316 315 313 313 314 314 314 316 315 312 317 320 325 321 321
307 305 305 306 306 306 307 307 308 307 306 304 307 313 313 317 318 319 316 313 309 313 312 311 311 311 307 314 316 318 317 318 316 314 314 316 312 314 313 314 318 318 317 315 323 321 322
305 307 306 304 305 306 306 306 307 307 307 304 304 310 312 315 317 318 315 309 309 314 313 315 312 306 307 316 319 315 316 315 317 316 317 318 317 317 317 316 316 316 317 317 316 316 322
301 304 305 307 304 305 306 305 306 307 307 306 304 310 311 315 317 317 314 309 310 312 315 312 314 312 313 316 320 317 315 315 316 317 320 318 319 317 317 319 319 318 318 317 317 316 319
300 299 302 304 307 304 304 305 305 306 306 306 305 309 310 315 318 316 313 309 313 314 313 313 315 316 317 318 319 318 312 314 317 318 319 318 317 318 320 319 319 318 319 319 319 316 317
301 301 298 302 303 306 304 304 305 305 306 306 306 306 309 315 315 314 310 313 315 314 315 316 320 319 319 318 318 317 313 316 317 317 318 318 317 320 320 320 318 320 317 318 318 318 318
302 301 300 300 302 303 306 303 304 304 305 306 306 306 307 313 310 312 314 310 314 314 310 311 322 318 318 315 314 314 314 316 317 318 317 317 319 320 320 319 318 318 318 318 318 316 317
303 302 301 301 300 301 303 304 303 304 304 306 305 305 306 309 313 314 313 313 316 319 313 313 320 318 315 313 315 313 314 314 315 319 318 316 317 317 317 318 318 318 318 316 316 316 319
303 303 302 302 301 301 302 305 303 303 303 305 305 305 304 311 313 315 315 316 326 320 312 318 321 316 313 313 315 314 313 315 316 317 318 318 318 319 320 320 318 317 317 319 318 320 321
303 303 303 302 301 300 302 303 304 302 303 303 304 305 304 308 313 312 313 322 324 319 317 318 317 314 313 314 314 315 313 313 312 314 315 318 317 318 318 318 318 319 317 319 321 320 318
303 303 303 303 302 301 301 302 304 302 302 302 304 304 304 305 309 312 316 323 321 318 318 316 316 316 314 314 314 314 312 312 311 313 315 318 318 319 319 319 317 319 319 316 319 317 318
303 303 303 303 302 301 301 301 301 303 301 302 305 304 304 305 309 311 315 319 319 316 320 322 316 316 315 314 315 314 313 312 313 311 312 315 317 319 319 319 318 318 315 318 316 321 322
303 303 303 303 303 302 301 300 301 303 302 302 304 305 303 306 311 314 317 316 317 317 318 320 323 323 316 315 314 314 314 314 312 311 312 315 314 315 319 319 319 318 317 315 315 314 318
303 303 303 304 303 302 301 300 302 303 302 302 304 304 306 308 313 314 315 313 314 318 317 318 321 322 322 315 315 314 315 314 311 313 314 315 313 313 316 317 317 315 317 315 317 317 315
304 303 303 304 304 302 301 301 301 303 301 302 304 304 309 309 311 312 313 314 313 317 316 318 320 320 320 317 316 315 314 313 313 313 315 316 314 314 314 315 317 319 317 316 314 312 316
303 303 303 304 304 302 301 300 301 302 301 302 304 304 310 309 308 310 313 315 312 314 315 316 318 320 321 319 315 315 315 317 318 314 316 315 315 314 315 314 315 319 317 317 316 315 316
303 303 303 304 304 302 301 300 301 301 302 302 304 303 308 310 309 310 311 313 313 313 315 315 316 319 320 320 318 317 319 320 318 317 316 315 316 315 314 314 316 317 318 315 316 315 317
303 302 303 304 304 302 300 300 301 301 301 302 304 305 308 310 307 309 312 312 313 312 315 315 316 316 318 321 319 318 320 319 318 315 316 313 316 313 317 315 315 318 316 316 315 315 314
303 303 304 304 303 302 301 300 301 301 300 302 302 303 307 310 309 308 309 311 312 312 312 315 314 315 317 317 316 316 316 316 316 317 315 314 314 312 316 312 314 313 314 314 314 313 314
303 303 303 304 303 301 301 301 301 299 300 301 301 303 307 308 311 310 308 311 311 312 313 313 314 314 314 315 315 316 315 316 315 318 314 313 312 309 311 310 313 314 312 312 313 312 310
304 303 301 303 302 301 300 301 300 299 300 300 302 303 308 306 310 311 310 309 310 310 312 312 313 313 311 315 318 320 315 318 316 315 316 313 310 311 313 313 313 314 311 311 311 310 309
302 302 304 302 301 301 301 300 299 300 300 299 302 303 305 310 309 310 311 310 310 311 310 311 311 310 315 315 314 320 321 320 319 317 312 311 309 312 307 312 313 312 312 308 309 311 309
300 304 303 302 301 301 301 300 299 300 300 298 299 300 304 308 311 310 312 311 309 309 310 309 312 317 313 306 310 317 319 317 317 318 315 312 309 310 303 309 312 311 310 308 312 311 308
303 302 302 301 300 300 300 299 299 299 300 298 298 299 302 306 308 310 308 310 310 310 309 309 311 313 311 314 316 315 309 314 315 315 316 318 314 309 306 307 319 308 309 311 309 309 308
301 300 299 300 300 300 300 299 299 299 299 298 298 297 299 305 308 305 305 305 307 310 310 310 312 314 314 317 311 307 309 303 313 317 312 317 315 315 314 315 311 308 309 309 307 308 308
Wind_Speed
22 22 22 22 21 20 20 23 22 21 20 19 22 21 18 17 16 17 17 18 18 19 21 21 21 19 8 4 8 4 7 8 12 9 5 4 3 3 1 3 2 3 5 1 2 7 5
25 25 24 23 24 22 22 21 23 23 22 18 21 23 20 19 17 17 17 18 19 19 20 20 18 15 3 4 3 1 7 9 6 6 5 5 5 4 2 4 1 2 3 4 4 4 5
27 26 26 25 25 25 24 22 21 21 20 22 22 23 21 20 19 18 19 18 19 20 20 19 14 8 2 13 3 8 3 3 4 7 3 6 4 2 1 4 2 2 2 4 0 3 3
30 29 27 27 26 26 25 23 23 21 19 20 22 23 21 20 20 19 20 20 20 21 21 16 7 3 7 6 7 15 13 8 7 9 12 6 3 2 3 3 5 3 3 0 4 2 1
35 33 32 29 28 26 24 24 23 22 20 19 20 22 22 19 19 19 21 22 22 23 14 5 1 1 9 6 8 10 13 6 5 7 7 7 2 2 5 2 4 5 1 1 4 5 2
34 37 35 33 30 29 27 24 23 22 21 21 19 20 18 18 18 19 21 22 18 7 2 2 1 3 8 2 4 2 5 7 2 2 1 3 4 3 3 3 4 3 2 3 5 3 5
37 30 36 37 34 31 29 27 24 22 21 19 18 18 17 15 15 17 19 9 3 1 3 8 4 4 5 10 5 3 4 9 4 4 2 3 4 3 7 5 3 2 3 5 3 5 4
42 37 34 35 37 35 31 28 27 23 21 19 16 17 13 12 13 15 13 4 1 1 7 12 15 8 14 4 4 4 9 5 5 5 2 4 4 6 3 3 3 2 3 4 4 3 3
42 44 39 36 34 37 34 31 29 25 23 18 17 15 10 11 13 11 11 12 3 8 3 7 6 6 6 12 7 6 8 5 4 5 5 5 4 5 3 3 2 2 3 2 2 5 0
44 42 44 41 38 35 36 34 31 27 24 20 18 17 10 9 7 7 7 1 13 10 3 6 5 7 7 8 4 11 10 6 2 9 7 5 3 4 3 3 5 2 3 3 4 5 3
48 45 44 41 40 40 36 36 35 29 26 22 20 16 12 12 2 3 2 9 2 2 3 3 4 6 7 10 5 6 8 5 8 7 5 6 3 4 4 5 5 6 1 1 1 3 1
51 49 47 45 41 40 41 39 37 33 29 24 21 18 12 14 17 14 6 16 3 3 7 4 7 6 7 4 3 4 4 6 4 5 1 4 2 4 6 3 6 2 3 5 4 3 1
53 52 50 47 44 41 43 40 38 36 31 26 23 19 17 11 4 14 12 3 3 5 4 4 5 6 5 6 4 5 7 7 6 4 3 2 3 2 3 2 3 2 5 3 4 3 4
54 54 53 49 46 42 41 41 39 38 32 29 24 20 20 22 15 4 2 3 10 6 6 4 2 5 8 5 6 5 5 6 2 5 3 6 5 5 4 5 7 3 6 5 2 2 3
56 55 55 52 49 45 41 40 39 38 35 28 21 23 20 22 23 8 1 9 6 6 4 4 1 5 4 5 6 5 7 8 9 8 7 5 5 3 2 0 4 3 2 4 6 3 2
58 56 56 55 51 47 43 40 42 38 37 31 20 13 20 22 21 8 4 17 8 5 3 3 6 4 8 7 6 8 8 6 6 10 5 8 1 2 2 2 1 3 6 3 3 2 3
61 57 56 56 54 49 45 43 41 40 37 35 16 4 8 24 20 5 13 11 16 11 4 3 3 3 6 7 9 6 9 3 7 5 5 5 5 3 1 4 6 2 1 4 5 4 4
62 60 57 57 56 51 48 46 46 48 39 35 8 6 18 37 12 7 17 8 6 17 2 4 2 3 3 6 6 8 10 9 9 10 8 6 5 5 9 1 2 4 7 6 4 4 1
59 60 59 58 59 53 49 47 47 49 51 32 5 5 26 31 14 17 9 16 6 6 8 4 4 4 3 1 3 7 7 5 9 8 9 7 1 1 7 5 2 3 5 4 5 4 6
55 61 59 59 61 55 51 48 49 48 49 37 4 7 5 10 13 16 21 17 22 6 8 2 2 2 2 4 4 3 6 4 7 8 8 8 4 8 9 8 5 4 5 5 6 4 5
54 56 58 59 62 58 54 51 53 56 51 35 5 7 6 14 20 18 19 14 19 17 14 10 3 6 2 5 3 4 2 3 2 5 5 6 8 6 3 3 5 5 5 8 6 6 6
52 52 58 60 63 60 57 54 56 60 51 28 5 3 3 9 17 20 14 22 24 21 9 14 6 9 10 5 5 3 2 2 5 4 7 2 4 3 3 3 1 4 4 7 4 3 5
51 52 53 60 62 59 56 57 60 62 53 11 8 3 2 12 20 16 25 21 19 19 18 7 20 10 5 15 12 11 7 5 3 3 9 8 7 3 4 3 3 5 8 7 6 5 7
47 49 49 61 62 58 56 58 63 64 65 12 9 1 3 5 13 23 19 17 24 23 12 19 11 6 6 2 1 2 3 2 7 3 3 7 7 3 3 3 2 6 2 3 8 6 5
43 47 46 62 60 57 55 63 63 60 52 27 14 8 3 5 9 12 17 23 11 14 15 11 14 8 4 5 3 0 4 1 2 5 3 1 6 3 5 4 5 3 5 7 7 9 6
35 37 57 62 59 58 59 60 63 55 55 39 15 18 2 2 11 12 14 14 16 12 5 11 9 4 3 2 3 3 5 5 5 2 2 6 6 5 3 5 8 8 5 5 5 5 7
21 50 58 59 59 59 58 58 54 46 45 38 21 13 4 2 2 9 11 14 10 9 3 5 9 5 7 3 2 4 9 4 6 10 5 3 3 5 3 3 7 7 4 5 5 8 9
49 55 53 53 55 56 55 52 48 40 37 31 24 21 3 4 4 4 3 6 9 16 7 4 5 5 2 7 5 4 4 6 3 4 7 7 7 3 3 3 7 8 4 9 7 1 7
51 50 49 48 49 50 48 44 39 36 36 32 9 26 19 6 2 4 9 12 5 5 8 5 5 6 8 4 1 3 2 1 4 4 1 3 6 6 9 7 4 6 4 3 5 5 7
Wind_Direction
281 280 281 282 278 277 279 280 273 273 271 269 276 280 287 295 304 310 318 321 320 323 329 330 331 334 337 347 254 324 8 130 144 157 170 164 147 143 202 244 290 188 270 185 125 137 121
279 277 276 279 282 282 282 278 283 275 269 270 274 274 280 290 298 306 313 319 316 320 325 326 328 335 319 285 264 237 91 133 131 167 192 196 189 196 244 252 194 180 352 36 22 147 150
274 273 274 274 275 278 282 285 279 281 277 265 273 275 272 281 293 301 308 314 314 315 318 320 324 341 282 242 232 192 236 244 228 208 166 228 227 129 221 287 230 244 31 20 237 192 232
272 271 270 270 269 274 277 279 283 280 281 263 269 272 271 274 286 298 304 310 311 308 307 308 317 338 251 263 248 245 258 276 239 222 232 257 236 204 212 273 23 85 37 4 252 126 327
269 269 269 269 267 266 266 273 276 280 279 279 264 270 271 268 277 293 301 308 307 303 295 283 280 84 265 279 264 252 251 226 173 219 232 267 207 115 20 56 29 21 307 280 304 162 144
263 265 265 267 267 266 265 261 265 269 276 278 275 264 275 269 279 290 299 307 304 302 67 140 119 357 270 228 289 259 259 214 175 124 158 55 51 60 23 71 166 169 280 304 247 282 196
269 271 259 263 263 264 264 265 262 264 271 271 274 275 269 278 278 291 305 307 324 260 169 211 182 252 278 324 287 229 196 149 109 62 159 2 76 204 213 176 180 192 213 217 274 267 226
263 265 269 254 257 258 258 259 263 262 264 271 267 273 274 273 277 283 302 279 284 78 309 235 243 255 267 290 290 280 175 131 137 195 117 26 231 227 228 191 186 231 194 240 267 281 127
256 257 259 261 252 252 255 255 254 256 260 260 262 264 266 267 272 277 265 254 235 313 260 279 202 199 201 158 212 248 158 131 140 142 194 172 226 126 217 229 152 271 203 235 211 348 95
251 250 253 254 257 247 247 251 251 251 252 251 254 256 248 266 266 236 249 224 313 185 302 264 228 254 161 163 233 204 192 138 127 199 158 232 260 185 218 239 123 290 217 290 14 49 267
248 246 247 248 248 251 242 241 246 245 244 243 244 252 228 231 239 204 174 345 118 256 306 219 185 165 162 165 147 215 177 73 166 169 134 243 177 191 193 223 162 223 179 208 162 155 51
246 243 242 243 242 245 246 235 237 239 240 236 236 242 234 245 238 239 249 327 176 65 245 290 153 165 151 200 161 106 136 64 122 109 120 247 218 183 216 152 203 205 150 55 48 88 102
246 241 238 237 239 238 241 232 230 231 233 234 230 231 222 227 234 249 279 274 197 204 316 225 185 158 180 160 183 144 156 150 152 120 239 301 233 246 184 96 34 109 65 347 355 16 220
245 241 236 233 232 232 234 232 221 225 226 228 225 230 226 227 224 225 251 230 220 211 247 314 172 118 182 139 216 164 130 162 237 98 125 172 299 195 183 179 179 170 138 154 253 195 266
242 239 234 229 226 226 227 230 222 217 219 220 217 221 236 229 222 215 172 220 209 219 230 254 46 130 215 209 151 137 177 181 191 167 158 154 266 280 169 60 154 164 139 167 104 12 56
240 235 231 226 221 220 219 221 223 209 210 213 204 207 232 214 210 190 203 225 227 221 333 354 225 184 178 189 150 160 174 193 207 187 155 203 164 282 236 159 264 144 158 81 23 171 256
234 233 228 222 215 214 212 215 217 208 204 201 191 190 229 192 179 201 217 211 224 256 46 356 313 304 216 170 175 170 195 241 192 170 129 138 138 247 249 196 194 112 156 70 119 138 179
233 229 226 219 209 209 209 209 208 200 193 188 184 197 175 167 187 207 218 173 234 237 136 274 281 256 255 181 168 184 188 200 171 147 165 193 151 196 209 250 145 181 194 154 136 209 156
232 227 221 216 203 202 202 202 201 188 188 175 192 180 172 168 190 212 200 208 245 227 219 211 246 237 349 255 184 186 190 224 151 146 163 182 190 110 337 359 12 206 194 139 109 87 186
227 219 217 211 197 196 196 197 194 191 188 176 174 174 170 195 219 200 193 200 208 235 249 164 251 320 307 307 228 239 205 215 173 185 126 103 147 168 209 214 154 197 196 174 145 126 176
221 219 212 206 192 192 191 192 189 190 189 181 193 207 190 181 211 206 197 190 190 213 206 178 249 206 195 235 317 210 170 119 118 162 144 144 201 188 223 200 178 207 194 180 169 189 168
216 215 207 202 188 187 186 190 189 187 188 191 173 186 194 194 202 197 199 207 194 206 186 206 192 200 207 236 226 123 101 232 197 191 158 176 211 163 156 118 154 220 237 190 214 171 262
209 207 205 196 182 181 184 188 185 182 190 188 202 251 200 203 184 186 210 197 197 195 218 193 210 220 219 224 244 266 222 220 194 222 176 157 137 118 220 23 37 336 223 200 209 196 181
199 198 200 184 178 178 182 184 183 182 192 172 183 202 204 197 189 207 187 197 192 203 202 211 229 195 229 45 297 52 34 212 169 120 195 143 117 95 165 51 251 244 309 224 213 234 228
191 190 196 172 172 174 181 180 177 184 188 195 174 211 212 220 208 206 197 196 188 204 225 224 221 223 346 7 327 352 328 10 44 26 58 86 125 101 142 186 294 258 211 168 176 258 193
178 188 175 168 170 170 170 174 178 183 187 191 184 193 324 204 215 192 193 184 195 201 209 227 240 239 96 135 165 215 232 192 197 114 59 79 58 125 143 151 214 233 240 154 110 271 178
179 170 162 163 165 169 168 172 177 182 185 186 202 193 286 289 291 194 187 186 174 184 198 170 178 210 148 155 190 162 247 219 164 165 173 74 36 151 117 197 283 244 212 147 132 238 169
159 153 154 158 165 167 171 176 181 183 182 179 197 195 277 248 300 347 26 160 171 199 169 178 122 220 74 180 170 202 191 220 157 177 172 156 141 171 85 74 278 171 97 172 214 291 156
139 144 152 156 157 165 170 174 178 179 178 179 190 218 237 252 290 321 286 271 221 175 170 201 179 169 178 162 163 104 173 66 157 206 92 202 181 179 180 209 210 205 217 237 171 163 163